This is the latest recevied weather packets stored in our database for station/object EA1FBN. If no packets are shown the sender has not sent any weather packets the latest 10 day(s).
| Time | Temp. | Humidity | Pressure | Rain* | Wind** | Luminosity | Snow |
|---|---|---|---|---|---|---|---|
| 1787443244 | 18.33° C | 67% | 1013.6 hPa | 0 mm | - | - | - |
| 1787442944 | 18.33° C | 67% | 1013.6 hPa | 0 mm | - | - | - |
| 1787442344 | 18.89° C | 66% | 1013.5 hPa | 0 mm | - | - | - |
| 1787442044 | 18.89° C | 65% | 1013.5 hPa | 0 mm | - | - | - |
| 1787441445 | 19.44° C | 63% | 1013.5 hPa | 0 mm | - | - | - |
| 1787441145 | 18.89° C | 63% | 1013.5 hPa | 0 mm | - | - | - |
| 1787440545 | 18.89° C | 64% | 1013.6 hPa | 0 mm | - | - | - |
| 1787440245 | 19.44° C | 64% | 1013.6 hPa | 0.25 mm | - | - | - |
| 1787439645 | 20° C | 62% | 1013.5 hPa | 0.25 mm | - | - | - |
| 1787439345 | 20° C | 62% | 1013.5 hPa | 0.25 mm | - | - | - |
| 1787438745 | 20° C | 59% | 1013.4 hPa | 0.25 mm | - | - | - |
| 1787438445 | 20° C | 61% | 1013.5 hPa | 0.25 mm | - | - | - |
| 1787437845 | 20.56° C | 60% | 1013.5 hPa | 0.25 mm | - | - | - |
| 1787437545 | 21.11° C | 59% | 1013.5 hPa | 0.25 mm | - | - | - |
| 1787436945 | 21.67° C | 55% | 1013.4 hPa | 0.25 mm | - | - | - |
| 1787436645 | 21.67° C | 56% | 1013.4 hPa | 0.25 mm | - | - | - |
| 1787436045 | 21.67° C | 59% | 1013.4 hPa | 0.25 mm | - | - | - |
| 1787435745 | 21.11° C | 59% | 1013.3 hPa | 0.25 mm | - | - | - |
| 1787435145 | 21.67° C | 56% | 1013.3 hPa | 0.25 mm | - | - | - |
| 1787434845 | 21.67° C | 56% | 1013.2 hPa | 0.25 mm | - | - | - |
| 1787434245 | 22.22° C | 53% | 1013.2 hPa | 0.25 mm | - | - | - |
| 1787433945 | 22.22° C | 52% | 1013.3 hPa | 0.25 mm | - | - | - |
| 1787433345 | 22.78° C | 52% | 1013.3 hPa | 0.25 mm | - | - | - |
| 1787433045 | 22.78° C | 53% | 1013.3 hPa | 0 mm | - | - | - |
| 1787432445 | 22.78° C | 51% | 1013.2 hPa | 0 mm | - | - | - |
* Rain latest hour (hover to see other rain measurements)
** Current wind speed in m/s (hover to see current wind gust speed)